GEFSNE_500_meanwind_000.txt.gz
Wind_Speed
32 33 32 32 29 29 29 31 31 32 32 29 28 29 28 24 21 19 17 17 17 15 15 14 14 13 11 8 5 6 8 9 7 6 4 4 4 5
35 33 31 31 28 28 30 31 30 30 30 29 28 28 26 22 20 20 18 17 16 18 21 16 13 9 8 7 8 8 7 7 6 5 4 4 6 8
31 29 29 29 28 28 29 29 29 30 29 30 29 28 27 24 19 17 15 15 17 20 18 16 13 11 12 11 9 8 8 8 8 7 6 6 8 10
31 29 29 29 29 28 29 29 30 29 28 28 30 26 25 24 20 16 14 15 15 17 16 16 15 16 18 15 13 12 10 9 8 8 8 9 10 12
32 31 30 29 30 29 29 29 29 28 28 28 29 26 26 24 22 18 16 15 15 16 13 13 15 17 18 18 17 15 12 10 9 10 11 12 13 14
34 33 31 30 32 31 31 30 29 28 28 30 28 26 26 25 23 18 21 18 14 15 14 15 18 18 18 19 19 17 16 16 15 14 13 13 14 16
36 35 32 31 32 32 32 32 31 30 29 29 29 28 27 26 24 22 23 21 18 15 15 15 15 17 17 18 20 21 22 22 21 20 17 15 15 16
35 36 37 37 34 32 29 28 29 28 27 28 28 28 28 28 29 28 27 24 22 16 15 17 17 15 14 15 19 23 25 26 26 24 23 21 19 19
34 34 33 34 34 33 30 27 26 26 28 28 28 29 29 31 30 28 31 30 26 24 19 18 20 19 17 18 20 23 25 27 28 25 25 26 25 25
32 33 32 33 33 33 33 34 33 32 31 30 30 32 33 30 33 34 32 34 32 29 26 23 22 21 20 20 22 25 25 25 24 22 24 26 27 27
30 30 31 33 34 36 36 36 36 36 36 34 35 36 38 38 35 32 28 25 23 21 28 29 27 24 18 18 22 22 22 24 25 25 24 22 21 23
33 33 32 31 34 36 36 36 36 36 36 36 37 37 38 41 39 34 35 32 27 29 25 23 26 26 22 21 22 24 23 21 22 23 22 20 19 20
35 35 34 35 38 37 35 36 37 38 38 36 35 37 38 37 35 32 32 34 32 27 24 23 26 27 27 28 28 28 27 24 20 19 19 21 20 20
35 33 35 36 35 37 37 37 38 37 36 36 36 35 34 33 33 31 30 30 33 32 30 30 31 29 28 28 28 28 27 25 23 22 23 25 24 22
36 36 35 35 35 37 36 36 38 38 37 38 39 38 37 36 35 32 29 29 29 31 32 33 34 35 35 34 32 32 30 29 27 25 24 24 25 25
29 32 34 36 36 38 38 38 41 44 43 40 41 42 42 40 37 36 35 34 32 33 34 34 34 35 37 38 37 36 35 33 31 30 30 28 28 28
26 27 27 26 26 26 28 31 36 41 44 43 43 44 45 44 41 39 37 37 36 36 36 37 37 36 37 37 38 38 36 35 33 32 32 32 31 30
32 33 31 29 27 28 29 29 27 27 27 28 30 36 40 43 43 41 40 39 39 38 37 37 38 39 39 39 39 40 39 38 35 33 32 31 30 29
43 41 39 37 35 35 36 35 30 26 24 23 23 26 29 33 35 36 37 37 37 39 39 39 39 38 38 38 38 38 39 37 35 33 32 31 30 29
50 49 48 47 46 44 43 42 41 39 38 36 32 30 30 30 30 30 31 33 34 35 35 36 36 36 37 38 37 37 38 38 36 35 34 32 32 31
52 53 53 52 53 53 52 52 51 51 49 46 44 41 38 36 35 35 35 35 35 36 36 37 36 36 36 37 39 38 39 39 39 38 38 37 36 35
49 51 53 56 58 58 58 58 58 59 58 56 53 51 49 47 46 45 43 41 40 38 38 40 42 40 39 39 40 41 40 41 42 42 42 42 41 40
48 50 52 54 55 57 58 58 60 61 61 60 58 56 54 53 52 51 50 48 47 46 44 44 43 41 42 43 43 43 41 41 43 44 46 46 46 45

GEFSNE_500_meanwind_006.txt.gz
Wind_Speed
37 33 29 27 26 25 25 26 27 27 27 30 30 28 26 25 25 23 21 20 18 17 17 17 17 19 19 19 19 18 16 13 12 12 12 12 9 8
31 28 25 24 24 25 26 26 25 25 24 26 26 25 23 22 22 22 22 21 19 17 18 19 20 21 20 19 18 15 13 14 15 14 11 10 9 9
28 23 21 22 24 25 25 24 24 24 23 23 24 24 23 21 20 20 22 21 20 18 18 19 20 19 18 18 17 15 15 16 15 11 9 9 9 9
23 22 21 23 24 24 23 23 24 24 24 22 23 23 23 23 21 20 21 21 21 20 20 20 20 18 17 18 18 17 15 13 12 11 10 10 10 9
20 22 23 25 26 25 24 24 24 25 24 23 23 24 24 24 23 22 21 22 23 22 22 21 18 17 18 19 20 17 14 13 12 11 11 9 8 8
24 25 26 27 27 26 26 26 26 26 25 24 24 25 26 25 24 24 23 23 24 22 21 21 19 18 19 21 22 20 18 16 15 14 12 11 11 11
27 27 28 28 28 28 28 28 29 29 27 26 26 26 27 25 24 24 24 24 22 21 21 22 22 22 23 25 26 26 24 21 19 18 17 17 17 17
34 33 33 32 31 31 31 31 30 30 30 30 29 28 27 25 24 24 24 24 23 22 22 23 24 26 27 28 29 29 27 24 23 22 21 21 20 20
40 39 38 37 35 33 31 31 32 32 31 30 29 28 26 25 24 25 26 26 25 24 24 24 25 27 27 28 29 28 27 26 24 23 21 18 16 17
43 42 41 39 36 32 31 31 32 32 32 31 30 29 28 26 25 27 29 30 30 29 29 28 27 26 28 28 27 27 26 25 23 22 20 19 17 17
42 42 41 40 37 34 33 33 33 33 33 33 33 33 32 31 30 29 30 31 32 33 33 31 31 28 26 28 31 30 29 27 25 24 23 21 19 19
37 37 38 39 39 37 36 35 35 34 34 35 35 35 35 35 35 34 33 33 33 34 35 34 33 31 29 27 27 28 28 28 27 26 24 22 20 18
32 32 34 37 38 37 37 37 37 36 35 35 35 35 35 36 36 36 34 34 34 36 36 35 33 32 31 30 29 27 26 27 27 26 24 22 21 19
28 28 29 32 34 36 36 38 38 39 38 36 34 34 34 34 35 35 34 34 35 36 37 35 32 32 31 30 29 28 26 26 26 24 22 22 21 20
25 25 25 25 27 30 33 35 35 36 38 37 36 34 33 33 32 31 30 31 33 36 37 36 31 28 28 28 28 27 25 24 23 23 23 23 21 20
28 27 25 24 23 23 24 27 31 33 36 37 37 37 36 35 34 33 32 30 31 33 34 35 35 34 32 32 31 29 27 24 23 23 24 24 23 22
32 32 30 29 28 27 26 25 25 25 26 27 29 32 35 37 37 37 38 38 36 35 35 36 36 37 38 39 38 38 37 34 31 30 29 28 27 26
35 35 35 35 34 34 33 31 29 29 28 28 27 26 26 28 32 36 39 40 40 39 38 38 39 39 38 38 38 39 40 38 36 34 33 30 28 27
38 39 40 41 41 42 42 41 40 38 36 34 34 33 32 30 28 28 29 32 35 37 38 38 40 41 40 38 37 36 36 37 36 35 34 33 31 30
38 39 41 42 43 44 45 46 46 46 45 43 41 40 39 37 35 32 29 27 27 28 30 33 36 39 40 40 38 37 36 35 34 34 34 33 32 31
37 39 40 40 41 42 43 44 45 47 48 48 48 47 46 44 43 41 39 36 32 29 27 25 26 31 35 37 37 37 37 37 36 34 34 33 32 30
36 36 37 39 40 41 41 41 42 44 46 48 51 52 52 51 50 49 48 46 43 39 34 31 28 28 29 30 32 34 34 34 34 33 33 33 33 31
39 38 38 38 39 40 41 42 43 43 45 45 47 50 51 52 54 54 54 53 51 48 44 40 37 35 33 31 30 31 31 30 31 32 32 32 32 33

GEFSNE_500_meanwind_012.txt.gz
Wind_Speed
33 36 38 38 38 37 38 38 37 35 34 32 28 24 23 24 23 21 20 19 19 19 19 19 20 20 21 20 19 18 18 19 18 17 16 15 14 13
32 34 36 38 38 38 37 36 34 34 33 32 27 22 22 22 22 21 20 19 19 20 20 20 20 20 20 21 20 20 19 18 17 16 14 14 13 13
29 33 35 36 37 37 36 34 32 29 27 26 24 21 22 22 22 21 20 19 19 19 19 19 19 19 19 20 20 19 19 18 16 14 14 16 16 15
19 20 24 28 31 33 33 32 30 26 23 21 22 21 21 21 21 20 18 18 19 19 19 19 19 19 19 20 19 19 19 17 16 16 17 19 19 18
18 17 17 18 19 21 23 24 22 20 18 19 21 21 21 21 20 19 18 18 19 20 20 19 20 19 19 18 18 18 18 17 17 18 19 21 21 20
20 19 18 17 16 16 16 16 17 17 19 21 23 22 22 21 20 20 19 19 20 20 21 20 19 18 18 17 16 17 18 18 18 19 21 23 23 22
24 24 23 22 21 20 19 19 20 21 22 24 25 25 24 23 22 22 21 21 21 22 22 22 21 19 17 16 16 18 19 20 21 22 23 24 24 23
26 26 26 27 27 27 26 25 25 25 26 26 27 28 27 26 25 25 25 24 24 24 24 23 22 20 18 18 18 18 21 23 25 26 26 27 27 26
26 26 26 27 29 30 30 30 31 31 31 30 30 30 30 30 29 28 28 28 27 27 26 25 24 22 21 20 20 21 21 24 28 30 31 31 31 30
26 26 26 26 27 29 30 31 32 33 33 33 33 33 33 32 32 31 31 31 32 31 30 29 28 26 25 23 23 24 24 25 28 32 35 36 35 34
27 27 26 26 26 27 29 32 33 34 35 35 36 36 36 36 36 35 35 35 35 35 35 33 33 32 31 28 27 27 27 27 27 31 35 39 39 38
26 26 25 25 25 25 27 30 32 34 35 37 38 38 39 39 39 39 39 38 39 38 39 39 38 37 35 33 32 30 30 30 29 29 33 39 42 40
23 24 24 25 25 26 26 27 29 31 33 36 38 39 40 41 41 41 42 42 42 42 42 42 42 41 39 37 35 33 32 32 31 30 31 36 42 42
25 25 25 26 26 27 26 27 27 28 29 32 34 37 38 39 40 40 41 42 43 43 44 44 44 43 42 40 38 36 34 32 32 32 32 35 40 42
29 29 29 29 29 29 29 28 28 28 28 29 31 33 35 38 39 40 41 40 41 41 41 42 43 43 42 40 38 36 33 32 32 33 34 35 38 40
30 30 31 31 31 31 31 30 30 30 29 29 28 29 30 32 35 38 39 39 40 40 39 39 39 40 40 39 37 34 32 31 31 32 33 33 33 35
30 30 30 30 30 30 31 31 31 32 32 31 30 29 28 28 29 30 33 35 38 39 39 38 37 36 36 36 36 35 34 32 31 30 31 32 34 36
27 27 28 29 29 30 30 31 32 33 34 35 34 34 33 31 29 27 26 27 29 33 36 37 37 37 36 36 36 37 37 34 33 32 31 31 33 35
25 26 27 28 29 29 30 31 32 33 35 36 37 38 38 37 35 33 31 28 26 25 27 30 32 34 35 36 37 38 38 39 37 36 35 33 33 34
26 28 29 30 30 30 31 32 33 34 35 37 38 39 40 41 41 39 38 35 33 30 27 26 26 27 30 32 34 36 40 41 41 41 41 38 36 36
29 30 30 29 28 28 29 30 31 32 33 35 37 39 40 41 42 42 42 42 40 38 35 32 29 28 27 28 28 30 33 37 40 41 41 40 38 37
30 30 29 27 26 27 28 28 28 29 30 33 35 37 39 40 42 43 44 44 44 44 42 39 36 34 32 30 28 27 27 29 32 35 37 37 37 36
29 29 28 27 27 27 27 27 27 28 28 29 30 32 35 37 39 41 43 45 46 47 47 46 44 42 40 38 35 31 29 27 27 29 31 33 34 35

GEFSNE_500_meanwind_018.txt.gz
Wind_Speed
25 24 26 28 30 31 33 35 38 39 40 40 40 38 37 35 35 36 37 37 36 34 34 33 31 29 28 27 26 24 24 24 23 23 23 23 23 23
23 23 24 25 26 29 31 34 36 38 39 38 38 38 37 36 35 34 36 37 35 34 33 31 30 28 27 26 25 24 23 24 24 24 24 23 23 23
24 24 23 23 23 24 26 28 31 34 35 35 35 36 36 36 35 35 36 34 33 32 31 30 29 27 25 24 24 23 22 23 23 24 24 23 23 22
26 26 25 24 24 23 23 23 24 26 30 32 33 33 33 33 34 34 34 32 31 31 30 29 28 25 24 22 22 23 22 22 22 23 23 22 21 20
27 27 27 27 26 26 24 24 23 22 22 23 26 27 29 30 31 32 32 29 28 28 29 28 27 25 22 22 22 22 22 22 22 22 22 21 20 18
27 28 28 29 29 28 27 26 24 22 20 19 20 21 23 25 26 27 27 25 24 24 25 25 24 23 22 21 22 22 22 23 22 22 21 21 20 19
27 27 27 28 29 30 30 29 28 26 24 22 21 19 20 21 22 22 22 21 20 21 21 22 21 21 21 21 21 21 22 23 23 22 22 21 21 21
26 26 26 27 28 30 30 31 31 30 29 28 26 24 23 22 22 21 20 20 20 21 21 21 21 21 21 21 20 21 21 22 22 22 23 23 23 23
25 26 26 27 28 29 30 31 32 32 32 32 31 30 29 27 26 25 25 24 24 24 24 25 24 23 23 22 21 21 21 22 22 23 24 25 26 26
26 26 26 27 27 28 29 30 31 32 33 34 34 34 34 33 32 30 29 28 28 28 27 26 26 26 25 25 24 23 23 23 23 24 24 26 28 29
24 25 25 26 26 27 28 30 31 32 34 35 36 36 37 37 37 36 35 33 33 32 30 30 31 31 30 30 29 27 26 27 27 26 27 27 28 30
22 22 23 24 25 26 27 28 29 31 32 34 35 37 38 39 40 40 39 38 37 37 36 36 35 35 35 34 34 32 32 32 31 31 30 30 31 31
20 21 22 23 24 25 26 27 28 29 30 31 33 34 36 38 39 40 41 41 41 41 41 42 41 41 41 40 39 38 37 37 36 35 35 34 34 34
21 23 24 25 26 27 28 28 29 30 30 31 31 32 33 35 36 37 39 40 41 41 42 43 44 45 45 45 45 44 43 42 41 40 38 37 37 36
23 25 26 27 28 28 29 30 31 31 32 32 33 33 33 34 34 35 35 37 38 40 41 42 44 45 46 47 48 48 47 46 46 44 43 41 40 39
24 25 26 26 27 28 28 29 30 30 31 32 32 33 34 35 36 36 36 36 37 37 39 41 43 45 46 46 46 47 48 48 47 47 46 45 43 41
24 24 24 25 25 26 26 27 27 27 28 29 30 32 33 35 36 37 38 38 37 36 36 38 40 42 44 45 45 46 46 46 46 46 46 45 44 42
23 23 24 25 26 26 26 26 25 25 25 26 27 28 30 33 35 37 38 38 39 38 36 36 36 37 40 42 43 43 43 43 43 44 44 43 42 42
23 24 25 26 27 26 26 26 25 24 24 24 25 26 28 30 32 34 37 39 40 39 38 37 35 33 33 34 37 40 40 40 40 40 40 40 40 41
24 25 26 26 26 26 26 25 25 24 24 25 26 26 27 28 29 31 34 37 39 40 40 39 38 35 32 31 31 32 36 38 39 40 40 39 39 40
25 25 26 26 26 26 26 26 25 25 25 26 26 26 27 27 28 28 30 33 36 39 40 41 40 39 37 34 33 31 31 32 34 37 39 39 39 40
24 25 26 26 27 27 26 26 25 25 25 26 26 26 26 26 26 26 27 28 31 34 37 40 41 41 40 39 37 36 34 32 31 31 34 36 38 38
25 26 26 27 28 28 28 27 26 26 26 26 26 26 26 25 25 24 24 25 27 29 33 36 39 42 43 43 42 41 39 37 34 33 31 31 32 33

GEFSNE_500_meanwind_024.txt.gz
Wind_Speed
30 30 30 30 29 29 29 28 28 29 30 33 35 37 38 39 41 42 42 43 41 40 39 38 38 37 36 37 36 35 34 32 29 27 27 26 26 25
29 29 29 29 29 29 29 29 29 29 29 30 31 34 36 38 40 41 41 41 42 41 41 40 39 38 37 37 36 36 35 32 30 28 28 28 27 27
29 30 30 30 30 31 31 31 32 31 31 30 30 30 31 32 34 36 39 40 39 40 39 39 39 38 38 37 37 36 34 32 31 30 29 29 29 28
31 31 32 32 33 33 33 34 34 34 34 33 31 30 29 29 29 31 34 36 36 36 37 38 38 37 37 36 37 36 34 33 31 30 30 30 30 29
32 32 33 34 34 35 35 36 36 37 36 35 34 32 30 28 27 26 27 29 31 33 34 35 36 35 35 35 37 36 34 33 31 31 31 31 31 31
31 32 33 34 35 36 36 37 38 38 38 37 36 35 32 30 28 25 25 25 26 28 31 33 33 32 33 34 35 35 34 33 32 32 32 32 33 32
30 31 33 34 35 36 36 37 37 38 38 37 37 36 35 33 31 29 26 25 25 25 26 28 29 30 30 31 32 33 33 33 33 33 34 34 34 33
29 31 32 33 34 35 36 37 37 37 37 37 36 36 35 34 33 32 29 27 26 25 24 23 24 26 28 28 30 30 33 34 33 33 35 35 35 33
28 29 31 32 33 34 34 35 35 36 35 36 35 35 35 34 33 33 32 31 29 27 25 22 20 21 24 26 28 31 32 33 34 34 34 34 35 34
25 26 28 29 30 30 31 32 33 34 34 35 36 35 35 34 33 33 32 32 31 30 29 26 23 21 20 23 25 28 31 32 32 32 32 32 32 33
22 23 24 25 26 27 28 29 31 32 33 34 35 35 35 34 33 33 32 32 32 31 31 30 26 25 25 24 25 28 30 31 31 31 31 31 31 32
19 19 21 22 23 24 26 28 29 31 32 33 33 34 34 34 34 33 33 33 32 32 32 32 31 28 28 27 25 27 29 31 31 31 31 31 31 31
16 17 19 21 23 24 26 28 29 31 32 32 33 33 34 34 34 34 33 32 31 31 31 31 32 31 31 30 28 27 28 30 31 32 32 32 31 31
16 18 19 21 22 24 25 27 28 29 30 31 32 32 33 34 34 34 34 33 33 32 31 31 31 32 33 33 32 31 29 28 29 30 32 33 33 32
15 17 18 20 21 22 23 24 25 26 27 28 29 30 31 32 33 34 35 35 35 34 33 33 33 33 34 36 36 36 34 32 30 31 32 33 34 35
15 16 18 19 20 22 22 23 23 24 24 25 25 25 25 26 28 30 32 34 35 35 36 35 34 34 35 36 38 40 40 39 37 36 35 35 35 37
14 15 17 18 20 22 22 23 23 22 22 21 21 21 21 22 23 25 27 29 31 32 34 34 34 34 35 37 38 38 40 41 41 40 40 40 39 39
13 14 16 19 20 22 23 23 23 23 22 21 20 20 20 21 22 23 24 26 28 30 32 33 34 35 35 36 37 38 40 41 42 43 43 43 43 43
12 14 16 19 21 23 24 24 24 23 22 21 21 20 20 21 21 22 23 25 26 28 30 31 33 34 35 35 36 37 38 39 40 41 41 42 43 44
12 14 16 19 21 23 24 25 25 24 24 23 22 22 21 22 22 22 23 24 25 26 28 29 30 32 34 36 36 37 37 37 38 38 38 39 40 41
12 14 16 18 20 22 24 25 25 25 25 25 24 23 23 23 23 23 23 24 25 25 26 27 28 30 32 34 36 37 37 37 38 38 37 37 37 38
12 13 15 18 20 22 23 25 26 26 27 27 26 26 25 24 24 24 24 24 24 25 25 26 27 28 30 32 34 36 37 37 37 36 37 37 38 37
12 13 15 17 19 21 23 25 26 28 29 29 29 28 27 26 26 25 25 25 25 25 25 25 25 26 28 30 32 34 37 38 38 38 38 37 37 38

GEFSNE_500_meanwind_030.txt.gz
Wind_Speed
36 34 33 31 30 30 30 30 30 29 29 29 29 29 30 29 29 30 29 30 31 32 34 35 37 38 39 40 41 40 39 40 40 39 39 38 37 35
35 33 32 30 29 29 29 29 29 29 30 30 30 30 31 31 31 32 32 32 32 33 33 34 35 37 38 40 41 42 41 40 40 38 37 38 37 36
33 32 31 30 28 28 29 29 30 30 31 31 31 31 32 33 33 34 34 34 33 34 34 34 35 36 37 38 40 42 42 41 41 40 38 37 36 36
32 30 29 29 28 28 29 30 30 31 32 33 33 34 34 35 36 36 36 36 36 36 36 35 35 35 37 38 39 40 41 40 39 39 38 37 36 35
29 29 28 27 27 28 29 30 30 31 32 33 34 35 35 36 36 37 38 38 38 37 37 36 35 35 35 36 38 39 39 39 39 39 39 37 36 35
28 28 27 27 27 27 28 29 30 31 32 33 34 35 36 37 38 38 38 39 39 38 37 37 36 35 35 35 35 37 38 38 38 38 36 35 35 35
26 25 24 24 25 26 27 28 29 30 31 32 34 35 36 37 38 38 38 39 39 38 37 37 36 35 35 34 34 34 35 35 35 36 35 34 34 35
20 20 20 21 22 23 25 26 27 29 30 31 33 34 35 36 36 36 37 37 37 37 36 36 36 35 34 33 32 32 32 32 33 34 34 33 34 35
17 17 18 19 20 21 22 23 24 25 27 28 30 31 32 33 34 34 35 35 35 35 34 34 35 34 33 32 31 30 29 30 31 32 33 34 35 36
13 14 15 15 16 17 18 19 20 22 24 26 27 29 30 31 32 33 33 34 34 33 32 31 31 32 32 31 31 29 28 28 29 31 32 33 36 39
10 11 12 12 13 14 15 17 19 21 23 26 28 30 31 32 33 33 33 32 32 32 31 31 29 29 29 29 29 28 26 25 26 28 31 33 36 39
9 9 9 10 11 12 15 17 19 21 23 25 27 29 30 30 31 32 32 31 30 30 30 29 29 28 27 27 26 27 28 26 25 25 27 31 34 36
7 8 9 10 11 13 15 17 19 22 24 26 27 28 29 29 29 29 29 29 29 28 28 27 27 26 26 25 24 24 25 24 23 22 24 25 28 32
7 8 9 10 11 13 15 17 20 23 25 26 27 28 28 27 27 26 26 26 26 25 25 25 26 26 25 24 23 23 23 23 22 22 21 22 24 27
9 9 9 10 11 14 16 18 21 23 25 26 26 26 26 25 24 23 22 22 22 22 22 23 24 24 25 25 24 24 23 23 23 23 23 23 22 23
10 9 9 10 12 14 16 18 20 23 24 25 25 25 24 23 22 22 21 20 20 19 19 20 22 23 24 24 24 25 25 25 26 25 25 25 24 23
10 10 10 10 11 13 15 17 19 21 23 24 24 24 23 22 21 20 20 20 19 19 18 19 20 21 22 24 25 26 27 28 29 28 28 27 27 26
11 11 10 10 11 12 14 16 19 21 23 24 25 25 24 23 22 21 20 20 19 19 19 19 20 21 22 22 24 26 28 29 31 32 33 32 32 33
12 12 11 11 11 11 13 16 18 21 23 24 25 26 26 25 24 22 22 21 20 20 19 19 20 21 22 23 24 25 27 30 32 33 34 36 36 36
13 13 12 12 11 11 12 15 18 20 23 25 26 27 27 27 26 24 23 22 22 21 21 20 21 21 22 23 24 25 27 28 31 33 35 36 37 38
15 14 13 12 11 11 12 14 17 19 22 24 26 27 28 28 27 26 25 24 23 22 22 21 21 22 22 23 24 24 25 27 29 31 34 36 37 38
17 16 14 14 13 12 12 14 16 18 21 24 26 28 29 30 30 29 28 26 25 24 23 22 21 22 22 23 23 24 25 26 28 30 32 34 37 39
18 17 16 15 14 13 13 14 16 18 21 23 26 28 30 31 32 31 30 29 28 26 24 23 22 21 21 21 22 23 24 26 27 29 30 31 34 37

GEFSNE_500_meanwind_036.txt.gz
Wind_Speed
40 39 37 35 34 32 31 31 31 31 31 30 28 27 27 27 27 27 28 28 29 29 28 28 28 28 29 29 30 30 31 32 33 34 35 35 36 37
39 37 34 33 31 30 28 29 30 30 28 27 26 25 24 25 26 27 28 28 28 28 29 29 29 29 29 30 30 31 31 32 33 34 35 35 37 38
34 33 32 31 30 29 29 27 27 27 26 25 25 25 25 26 27 28 28 29 29 30 30 30 31 31 31 31 32 32 32 32 33 33 35 36 37 38
31 30 29 30 29 28 27 26 25 24 24 24 25 26 27 27 28 28 29 30 30 31 32 32 33 34 34 34 34 34 34 34 34 35 35 37 37 38
29 28 29 29 28 27 26 25 23 23 24 24 24 25 26 26 27 29 30 31 32 33 34 34 35 35 36 36 36 36 36 36 36 37 37 37 39 40
27 28 29 27 26 26 25 24 23 23 23 23 23 24 25 26 27 29 30 32 33 34 36 36 37 38 38 38 39 39 39 39 38 38 39 39 40 41
25 25 24 24 24 23 22 21 20 20 20 20 21 23 24 25 27 28 30 32 33 34 35 36 37 38 39 39 39 40 40 40 40 40 40 40 41 41
23 22 21 20 20 18 17 17 17 17 18 19 20 22 23 24 25 27 28 30 31 32 34 35 36 37 38 39 40 40 40 40 41 41 40 40 39 40
19 18 18 16 15 14 13 13 14 14 15 16 18 19 21 22 24 25 27 29 30 32 33 34 35 36 37 38 39 40 40 41 41 40 40 40 39 39
12 12 11 10 9 10 10 11 11 11 13 14 16 18 19 21 23 24 26 28 29 31 32 34 35 36 37 37 38 38 39 39 39 39 39 38 38 38
8 8 7 8 8 8 8 8 9 10 11 13 14 16 18 20 22 24 26 28 29 30 31 33 34 35 35 35 36 36 36 36 37 38 37 37 37 36
7 7 7 7 7 7 7 7 8 9 10 11 13 15 17 19 21 23 25 27 29 30 31 31 32 32 33 33 33 33 34 34 34 34 34 34 34 34
6 6 6 6 6 6 6 6 7 8 9 11 13 14 16 19 21 23 24 26 27 27 28 29 29 29 29 29 30 30 30 31 30 30 30 30 30 30
7 7 7 7 7 6 6 6 6 7 9 10 12 14 16 19 21 23 24 25 25 26 26 26 26 25 26 26 26 26 26 27 27 27 27 26 26 26
8 8 8 7 7 7 6 6 6 7 8 11 13 15 17 20 22 24 25 25 25 25 24 24 23 23 22 23 23 23 24 24 24 24 23 22 22 23
9 8 8 8 8 7 6 5 6 7 9 11 13 15 18 20 22 24 25 25 25 24 24 23 22 21 21 21 21 21 22 22 23 23 21 21 22 22
10 9 9 9 9 8 7 6 6 7 9 11 14 16 18 21 22 24 25 25 25 25 24 23 21 20 19 19 20 20 21 22 23 24 23 22 22 22
10 10 10 10 10 9 7 6 6 7 9 11 13 15 18 20 23 25 26 27 27 26 25 24 22 20 19 18 19 19 20 21 22 24 25 25 24 24
11 11 11 11 10 9 8 7 7 7 8 10 12 14 17 20 23 25 27 28 29 28 27 25 23 21 20 19 18 19 19 20 21 23 24 26 27 27
12 12 12 12 11 10 9 8 8 8 8 9 11 13 16 19 22 25 27 29 30 30 29 27 25 23 21 19 19 19 19 19 20 22 23 25 28 29
13 13 13 13 12 12 11 11 10 10 10 10 11 13 15 18 21 24 27 29 30 31 30 29 27 24 22 20 19 18 19 19 20 21 23 24 26 29
14 14 14 14 14 14 13 13 12 12 11 12 12 14 16 18 21 23 26 29 31 32 32 31 29 27 24 22 20 19 19 19 20 21 22 24 26 27
15 15 15 16 16 16 15 15 14 14 14 14 15 15 17 19 21 23 26 28 31 33 33 32 31 30 27 25 22 21 20 19 20 20 22 24 26 27

GEFSNE_500_meanwind_042.txt.gz
Wind_Speed
38 38 37 36 35 34 34 32 31 31 30 28 27 27 27 27 28 29 29 30 31 32 32 32 32 31 31 31 31 32 32 32 32 33 33 33 33 34
38 37 36 35 34 33 33 32 31 29 28 27 26 26 26 27 26 27 29 29 29 30 31 31 31 31 31 32 33 33 34 34 34 35 35 35 36 36
35 34 33 32 31 31 31 30 28 27 26 26 25 25 24 25 26 25 26 26 27 28 28 29 30 31 32 32 33 34 35 36 36 37 37 37 37 38
31 30 29 28 28 28 28 27 26 26 26 25 24 24 24 24 25 26 26 27 27 28 28 29 30 32 32 33 34 35 35 36 37 38 39 40 40 40
27 26 26 26 25 25 26 26 25 26 26 25 24 24 24 25 24 25 25 26 26 27 28 28 29 30 32 34 35 36 37 38 39 41 42 43 43 43
23 23 23 23 23 24 24 24 24 25 24 23 23 23 22 22 22 22 22 23 24 24 25 27 28 30 31 33 35 37 39 40 42 44 45 46 46 47
19 20 20 21 21 21 22 22 23 23 22 22 22 20 20 19 19 19 20 20 22 23 24 26 28 29 31 33 35 37 39 41 43 45 46 48 49 49
17 17 18 19 19 19 20 21 21 21 20 20 19 18 18 17 17 17 17 19 20 22 24 26 28 30 32 34 36 38 40 41 43 45 47 49 50 51
14 15 16 16 17 18 18 18 17 17 16 16 16 15 15 14 14 14 15 17 18 20 21 23 25 27 29 32 34 37 39 42 44 46 47 49 50 52
13 13 14 14 15 16 15 14 14 14 13 12 11 11 11 11 11 12 13 14 16 18 20 23 25 28 30 32 35 37 39 42 44 46 48 50 51 52
12 12 13 13 14 13 13 12 11 11 10 9 9 9 9 9 9 10 11 13 15 17 19 22 24 27 30 32 34 37 39 41 43 45 47 49 51 52
11 11 11 11 11 11 11 11 11 10 9 8 7 7 6 6 7 8 9 11 13 15 17 20 23 26 29 31 33 34 36 37 38 40 42 43 45 47
11 12 12 12 11 11 11 12 11 9 8 7 6 5 4 5 5 7 8 10 12 15 17 19 22 25 27 29 31 31 32 33 34 35 36 38 39 40
11 12 12 12 11 11 11 11 10 9 7 6 5 4 3 4 4 6 8 10 12 14 17 20 22 25 27 27 28 29 29 29 30 31 31 32 33 34
13 13 12 12 11 11 11 11 10 9 8 7 5 4 3 2 3 5 7 9 12 15 18 21 23 25 26 27 27 27 27 27 27 27 27 27 27 27
15 14 13 12 11 11 11 11 10 9 8 7 5 3 2 1 2 4 7 9 12 15 19 21 24 26 26 26 26 25 24 24 23 23 23 23 23 22
16 15 14 13 12 12 12 12 11 10 9 7 5 4 2 1 2 5 7 10 13 17 20 22 25 26 27 27 26 25 24 22 22 21 21 21 21 21
17 15 14 13 13 13 13 12 12 11 9 8 6 4 3 2 3 5 8 11 14 17 20 23 25 27 28 28 27 26 24 23 22 21 20 19 19 19
18 16 15 14 14 14 13 13 13 12 10 9 7 5 4 4 5 6 9 12 14 17 20 23 25 27 28 29 29 28 26 24 22 21 20 19 18 18
18 17 16 15 15 14 14 14 13 13 11 10 8 7 6 6 7 8 10 12 15 17 20 22 25 27 28 29 30 29 28 26 24 22 21 20 19 18
19 17 16 16 15 15 15 15 15 14 13 12 11 10 9 10 10 11 12 13 15 17 20 22 24 26 28 30 30 30 30 29 27 25 23 21 20 19
18 17 16 16 16 16 16 16 16 16 15 14 13 13 12 12 13 14 14 15 17 19 21 23 25 27 28 30 31 31 32 31 30 28 26 23 21 20
18 17 16 16 16 17 17 17 17 17 16 16 15 15 15 15 15 16 16 17 19 20 22 24 26 27 29 30 31 32 33 33 32 31 29 26 24 22

GEFSNE_500_meanwind_048.txt.gz
Wind_Speed
32 31 31 32 33 34 34 34 34 33 33 32 33 32 31 31 30 30 30 31 31 32 32 34 35 35 35 35 36 37 36 35 35 34 34 33 33 34
31 30 30 31 32 33 34 34 34 34 34 34 33 32 31 31 30 30 30 30 31 31 32 33 34 35 36 36 36 36 36 36 36 36 36 35 34 34
30 29 29 29 30 32 32 33 33 34 34 34 33 31 31 31 30 30 30 30 31 31 31 31 32 33 34 34 36 36 37 38 38 37 37 37 37 37
30 29 28 28 29 30 31 32 33 33 33 33 32 32 31 31 31 30 29 28 29 29 30 30 31 32 33 34 34 35 36 37 38 39 39 39 39 39
30 29 28 28 28 29 29 30 31 31 31 32 32 32 32 31 30 29 28 28 28 29 29 30 30 30 31 31 32 33 36 36 37 38 39 40 40 40
30 29 28 27 26 27 27 27 29 30 30 30 31 31 30 30 29 29 28 28 28 28 28 28 28 28 28 29 30 32 33 35 36 37 38 39 40 41
31 29 27 25 25 25 25 26 27 28 29 30 29 29 30 30 29 30 29 27 26 26 25 25 25 25 25 26 27 28 30 32 34 36 37 39 40 42
30 29 27 25 24 24 24 25 26 27 27 28 29 28 29 29 28 27 27 26 24 23 22 22 22 22 23 24 25 27 28 30 31 33 35 37 39 41
28 27 25 24 24 24 23 23 24 25 27 26 26 27 26 26 25 24 23 22 20 20 19 18 18 18 19 21 22 23 24 26 29 31 33 35 38 40
27 26 25 25 23 22 21 22 22 22 22 22 23 24 24 23 21 21 20 18 17 17 16 15 15 15 16 17 19 21 23 25 27 30 33 36 38 40
27 25 24 23 22 22 21 22 22 21 20 20 21 21 21 20 18 17 16 15 15 14 12 12 12 12 13 15 18 20 23 25 28 31 34 37 39 42
26 24 23 22 22 21 21 21 21 20 20 20 19 18 17 17 16 15 14 13 11 10 9 9 9 10 11 14 16 18 21 24 27 29 32 35 38 41
26 24 23 22 22 21 20 20 20 19 18 18 17 16 16 15 14 13 11 10 9 8 7 7 7 9 11 13 16 18 21 23 25 27 30 32 35 37
26 24 22 21 21 20 19 18 18 18 18 17 16 15 15 14 13 12 11 10 9 7 6 6 7 8 10 13 15 17 20 22 25 27 29 30 31 33
26 24 23 22 21 20 19 19 18 18 17 16 16 15 15 14 13 12 11 10 8 6 5 5 6 8 10 12 15 17 20 22 24 26 27 28 29 30
27 25 24 23 23 22 21 20 19 18 17 17 16 15 14 14 13 12 11 9 7 6 5 5 6 8 10 13 15 18 20 22 24 25 26 27 28 29
27 26 24 23 23 22 21 20 19 19 17 17 16 15 15 14 13 12 10 9 7 6 6 6 7 9 11 13 15 18 20 22 24 25 26 27 28 28
29 27 26 25 24 23 22 21 19 19 18 17 16 16 15 14 13 12 10 9 8 7 7 7 8 10 12 14 16 18 20 22 24 25 27 28 28 28
30 29 27 25 24 23 22 21 20 19 19 18 17 16 15 14 13 12 11 10 9 9 9 10 11 12 14 16 18 20 22 24 25 27 28 29 30 30
31 30 28 26 24 23 22 21 20 20 19 18 18 17 16 15 14 13 13 12 11 11 12 12 13 15 16 18 20 21 23 24 26 28 29 30 31 31
31 30 28 26 24 23 21 21 20 20 19 19 18 18 18 17 16 15 14 14 14 14 15 15 16 18 19 20 21 23 25 26 27 29 31 32 33 33
31 29 27 25 23 22 21 20 20 20 19 19 19 19 18 18 17 16 16 16 16 16 17 18 19 20 21 22 23 25 26 27 28 29 31 33 34 34
30 28 26 24 23 21 21 20 20 19 19 19 19 19 19 18 18 18 18 18 18 19 20 21 22 22 23 24 25 27 28 29 30 31 33 34 35 35

GEFSNE_500_meanwind_054.txt.gz
Wind_Speed
35 34 33 32 32 31 30 29 27 25 25 27 28 28 29 28 27 26 26 25 25 26 26 26 28 29 30 29 29 30 30 31 33 33 34 35 35 34
36 35 34 33 33 31 30 29 28 26 25 26 27 27 27 27 26 25 25 25 25 26 26 26 26 27 28 28 29 28 29 29 30 31 32 32 33 34
38 37 35 34 33 32 30 29 28 27 25 25 27 27 27 27 26 26 25 25 25 25 26 26 27 27 28 28 29 28 29 29 30 31 31 32 32 34
39 38 36 35 33 32 31 30 28 27 26 25 26 27 27 27 27 26 25 25 25 25 25 26 26 25 25 25 26 27 27 28 29 30 31 32 32 33
40 38 37 36 34 33 31 30 28 27 27 26 26 27 27 27 27 26 26 26 26 25 25 25 25 24 24 25 25 26 27 28 28 29 31 33 34 34
42 40 38 37 35 33 32 30 29 27 27 26 26 27 27 26 26 26 26 26 26 26 26 26 25 25 24 24 24 24 25 26 27 27 28 29 31 32
43 41 39 37 35 34 32 31 29 27 27 26 26 26 27 26 26 25 25 26 26 25 25 25 25 24 23 23 23 23 23 23 24 24 25 26 28 29
45 43 40 38 36 34 32 31 29 28 26 25 24 25 26 25 25 25 24 25 25 24 23 23 23 22 22 22 22 21 21 22 22 23 23 24 25 26
47 45 42 39 37 35 32 31 29 28 27 25 23 23 24 26 26 24 23 24 25 24 23 22 21 20 20 20 19 19 19 20 21 22 22 23 24 25
49 46 43 40 37 35 33 31 29 28 26 25 23 23 24 24 24 24 24 25 25 23 21 20 20 19 18 17 18 17 17 17 18 19 19 20 22 23
47 45 42 39 36 35 32 30 28 27 26 25 24 23 23 23 22 22 22 22 22 21 19 18 18 17 16 15 15 15 14 14 14 14 15 17 18 20
44 43 40 38 36 34 32 30 28 26 25 24 23 22 22 22 21 20 20 19 19 18 17 16 16 15 14 13 12 11 10 10 11 12 14 16 18 20
41 41 38 36 34 32 30 28 27 25 24 23 22 21 20 19 19 19 19 18 18 17 16 15 14 13 12 11 10 9 8 9 10 12 13 15 17 19
39 39 37 35 33 31 29 27 25 24 24 23 22 21 21 20 20 19 19 18 18 17 16 15 14 12 11 10 9 8 8 8 9 11 12 14 16 18
38 37 35 34 32 30 28 26 24 23 22 22 21 20 20 20 19 19 18 18 17 17 15 14 13 11 10 9 8 8 8 8 10 12 13 15 17 19
38 36 34 33 31 29 26 24 23 22 21 20 20 19 19 19 19 18 18 18 17 16 15 13 12 11 10 9 8 8 9 10 11 13 14 16 18 20
37 36 35 33 30 27 25 24 22 21 21 21 20 20 19 19 19 19 19 18 17 16 14 13 12 11 10 10 9 10 10 12 13 15 17 19 20 22
37 35 33 31 29 27 25 24 24 23 23 22 21 21 20 20 19 19 19 18 17 15 13 12 12 11 10 11 11 12 13 14 16 18 20 21 23 25
36 34 32 31 29 27 26 26 25 24 23 22 22 21 20 20 20 20 19 18 16 14 13 12 12 12 12 13 14 15 16 18 19 21 23 24 26 27
35 33 32 30 28 27 26 25 25 25 24 23 22 21 21 21 20 19 18 16 15 14 13 13 13 14 15 16 17 18 20 21 22 24 25 27 28 29
34 33 31 30 29 28 27 26 26 25 23 22 22 21 21 21 20 18 17 16 14 14 14 14 15 16 17 19 20 21 22 24 25 26 27 28 29 30
33 32 31 30 29 28 27 26 25 24 23 22 22 21 20 20 19 18 16 16 15 15 15 16 17 18 20 21 23 24 25 26 27 29 29 30 31 32
32 31 30 30 29 28 26 25 24 23 22 21 21 20 19 19 18 17 16 16 16 17 18 19 20 21 23 24 25 26 28 28 29 29 30 31 33 34